Weather in Dmitriyevka

Russia / Orenburg Oblast     52°00′21″N   55°31′14″E
temp.,
°C
wind,
m/s
gust,
m/s
humid.,
%
clouds,
%
prec.,
mm/h
press.,
hPa
HPBL,
m
27 september, mon
mon2723:00+11wnw1157100 0.0 100610
02:00+10se116082 0.0 100611
05:00+9ese6115430 0.0 1005331
08:00+8e71361100 0.0 1005530
11:00+8ese61052100 1.4 1006631
14:00+9se5945100 0.3 1006759
17:00+9se5955100 0.8 1007777
20:00+6ene81058100 0.1 1009830
28 september, tue
tue2823:00+4ene586952 0.2 1010622
02:00+4ene5773100 0.0 1011976
05:00+4ne5885100 0.0 1012766
08:00+3ne61082100 0.0 1014770
11:00+5ne797199 0.1 10151057
14:00+8ne6848100 0.0 10161662
17:00+9ne6945100 0.0 10181702
20:00+7ne5955100 0.0 1020931
29 september, wed
wed2923:00+5ne485971 0.1 1021951
02:00+2nne410735 0.0 1022235
05:000nne39788 0.0 1023209
08:000nne397622 0.0 1024263
11:00+7ne56495 0.0 1024974
14:00+10nne563794 0.0 10241932
17:00+10ne563388 0.0 10242011
20:00+5ne354910 0.0 102678
30 september, thu
thu3023:00+3ene23657 0.0 102832
02:00+2nne337339 0.0 102843
05:00+1nne33785 0.0 102942
08:00+1n23806 0.0 103068
11:00+7n34525 0.0 1031618
14:00+10nnw343646 0.0 10301752
17:00+10nnw443332 0.0 10291849
20:00+6nnw34465 0.0 103044
1 october, fri
fri123:00+4nnw22520 0.0 103023
02:00+3nnw22550 0.0 103111
05:00+2nw22590 0.0 103111
08:00+2nw22620 0.0 103112
11:00+8wnw34405 0.0 1031692
14:00+12wnw44377 0.0 10301570
17:00+12nw453824 0.0 10291665
20:00+8n476787 0.0 1030223